Location: Bonny Doon Airfield
(37.0704°N, 122.1252°W)
Time: 06:28:26
(UTC-07:00)

BREEZE M DEB (TANK) - Visible Passes

Search period start: 30 September 2016 00:00
Search period end: 10 October 2016 00:00
Orbit: 325 x 13719 km, 49.6° (Epoch: 27 September)

Date Brightness Start Highest point End Pass type
(mag) Time Alt. Az. Time Alt. Az. Time Alt. Az.
01 Oct 9.4 04:53:12 10° ESE 05:36:20 21° ENE 06:38:20 10° NE visible
01 Oct 8.2 20:04:02 10° NW 20:41:54 21° W 20:56:58 10° SW visible
02 Oct 8.8 06:24:17 10° SSE 07:13:08 48° E 08:55:20 10° NE visible
03 Oct 9.8 04:21:47 10° E 04:48:55 13° ENE 05:20:54 10° NE visible
03 Oct 8.0 18:54:23 10° NW 19:52:32 31° W 20:09:25 10° SSW visible
04 Oct 8.8 05:35:29 10° SSE 06:21:50 38° E 07:54:20 10° NE visible
05 Oct 7.9 17:45:40 10° NW 19:02:20 43° W 19:20:15 10° SSW visible
06 Oct 9.0 04:48:32 10° SE 05:32:04 29° E 06:50:41 10° NE visible
06 Oct 8.8 20:21:54 10° WNW 20:41:22 13° WNW 20:53:12 10° W visible
07 Oct 8.6 06:26:34 10° S 07:12:41 58° ESE 09:03:18 10° NE visible
08 Oct 9.2 04:05:29 10° ESE 04:43:36 20° ENE 05:42:17 10° NE visible
08 Oct 8.5 19:07:07 10° NW 19:52:39 22° W 20:10:04 10° SW visible
09 Oct 8.6 05:36:35 10° SSE 06:19:52 47° E 08:02:56 10° NE visible
